Terminal Aerodrome Forecast
Issued by NWS Atlanta, GA

Home | Current Version | Previous Version | Text Only | Print | Product List | Glossary On
Versions: 1 2 3 4 5 6 7 8 9 10 11 12 13 14 15 16 17 18 19 20 21 22 23 24 25 26 27 28 29 30 31 32 33 34 35 36 37 38
000
FTUS42 KFFC 270951 AAB
TAFATL
TAF AMD
KATL 270951Z 2710/2812 30010KT P6SM BKN015
      TEMPO 2710/2712 32010G20KT -RA BKN008
     FM271400 32012G20KT P6SM BKN025
     FM271600 33015G25KT P6SM SCT025 BKN050
     FM271800 32012G22KT P6SM SCT035
     FM280000 32012G18KT P6SM BKN050
     FM280600 33010KT P6SM SKC=

USA.gov is the U.S. government's official web portal to all federal, state and local government web resources and services.